Location: Poughquag
(41.6090°N, 73.6820°W)
Time: 03:40:51
(UTC-04:00)

Vanguard 1 Rocket - Pass Details

Date: 06 June 2020
Orbit: 653 x 4224 km, 34.3° (Epoch: 06 July)

Event Time Altitude Azimuth Distance (km) Brightness Sun altitude
Rises 23:13:53 0° 236° (SW) 8,431 12.2 -21.6°
Reaches altitude 10° 23:19:56 10° 233° (SW) 7,420 11.9 -22.0°
Maximum altitude 23:44:11 58° 163° (SSE) 3,758 10.1 -23.6°
Drops below altitude 10° 23:59:03 10° 89° (E) 4,843 10.9 -24.4°
Sets 00:02:03 0° 85° (E) 5,477 11.3 -24.5°
